Home   Weather   Kokkola   Past weeks

Flag for Finland Past Weather in Kokkola, Finland — Yesterday and Last 2 Weeks

Now
53 °F

Cool.


Feels Like: 49 °F
Forecast: 45 / 50 °F
Wind: 14 mph from West

Location: Ulkokalla

Current Time: Oct 1, 2016 at 10:00:33 PM

Latest Report: Oct 1, 2016 at 9:00 PM


Visibility: N/A

Pressure: 29.50 "Hg

Humidity: 72%

Dew Point: 44 °F

Location of KokkolaLocation

Past Weather in Kokkola — Graph

°F

Kokkola Temperature Yesterday

Maximum temperature yesterday: 54 °F (at 6:00 PM)
Minimum temperature yesterday: 51 °F (at 12:50 PM)
Average temperature yesterday: 53 °F

High & Low Weather Summary for the Past Weeks

 TemperatureHumidityPressure
High56 °F (Sep 28, 12:00 PM)100% (Sep 27, 12:50 PM)30.32 "Hg (Sep 27, 12:50 PM)
Low47 °F (Sep 17, 6:50 AM)56% (Sep 23, 4:50 AM)28.73 "Hg (Sep 30, 1:50 AM)
Average52 °F83%29.93 "Hg
* Reported Sep 16 7:50 PM — Oct 1 7:50 PM, Kokkola, Weather by CustomWeather, © 2016

Note: Actual official high and low records may vary slightly from our data, if they occured in-between our weather recording intervals... More about our weather records

Advertising

Kokkola Weather History for the Previous 24 Hours

Scroll right to see more
 ConditionsComfort  
Time TempWeatherWind HumidityBarometerVisibility
7:50 PM
Sat, Oct 1
54 °FCool.12 mph74%29.47 "HgN/A
6:50 PM54 °FCool.10 mph78%29.44 "HgN/A
6:00 PM53 °FCool.9 mph78%29.41 "HgN/A
4:50 PM53 °FCool.12 mph80%29.38 "HgN/A
3:50 PM52 °FCool.14 mph83%29.35 "HgN/A
3:00 PM51 °FCool.14 mph82%29.35 "HgN/A
1:50 PM51 °FCool.13 mph79%29.29 "HgN/A
12:50 PM50 °FCool.12 mph80%29.26 "HgN/A
12:00 PM50 °FCool.13 mph82%29.23 "HgN/A
10:50 AM49 °FCool.13 mph79%29.21 "HgN/A
9:50 AM49 °FCool.13 mph78%29.18 "HgN/A
9:00 AM49 °FCool.14 mph77%29.18 "HgN/A
7:50 AM50 °FCool.13 mph77%29.15 "HgN/A
6:50 AM50 °FCool.12 mph75%29.15 "HgN/A
6:00 AM51 °FCool.13 mph72%29.15 "HgN/A
4:50 AM51 °FCool.12 mph73%29.12 "HgN/A
3:50 AM52 °FCool.13 mph70%29.12 "HgN/A
3:00 AM52 °FCool.13 mph72%29.12 "HgN/A
1:50 AM52 °FCool.14 mph70%29.12 "HgN/A
12:50 AM52 °FCool.14 mph77%29.12 "HgN/A
12:00 AM52 °FCool.15 mph74%29.12 "HgN/A
10:50 PM
Fri, Sep 30
52 °FCool.17 mph72%29.09 "HgN/A
Weather by CustomWeather, © 2016

See weather overviewHow to use our weather pages